Location: eljas
(40.1958°N, 6.8661°W)
Time: 21:00:03
(UTC+02:00)

ISS - All Passes

Search period start: 04 July 2015 00:00
Search period end: 14 July 2015 00:00
Orbit: 398 x 403 km, 51.6° (Epoch: 04 July)

Date Brightness Start Highest point End Pass type
(mag) Time Alt. Az. Time Alt. Az. Time Alt. Az.
04 Jul - 09:11:23 10° S 09:13:42 19° SE 09:16:04 10° E daylight
04 Jul - 10:46:45 10° WSW 10:49:54 46° NNW 10:53:02 10° NE daylight
04 Jul - 12:25:07 10° NW 12:26:55 14° NNW 12:28:41 10° NNE daylight
04 Jul - 14:03:04 10° NNW 14:04:23 12° N 14:05:42 10° NNE daylight
04 Jul - 15:38:44 10° NW 15:41:36 28° NNE 15:44:29 10° E daylight
04 Jul - 17:15:02 10° WNW 17:18:02 34° SW 17:21:00 10° SSE daylight
05 Jul - 09:53:07 10° SW 09:56:21 89° NW 09:59:36 10° NE daylight
05 Jul - 11:30:48 10° WNW 11:33:08 18° NNW 11:35:26 10° NNE daylight
05 Jul - 13:09:31 10° NNW 13:10:31 11° N 13:11:33 10° NNE daylight
05 Jul - 14:45:27 10° NNW 14:47:54 19° NNE 14:50:22 10° ENE daylight
05 Jul - 16:21:22 10° NW 16:24:36 74° SW 16:27:49 10° SE daylight
06 Jul - 08:59:47 10° SSW 09:02:53 43° SE 09:05:59 10° ENE daylight
06 Jul - 10:36:37 10° W 10:39:23 25° NNW 10:42:09 10° NNE daylight
06 Jul - 12:15:28 10° NNW 12:16:40 12° N 12:17:51 10° NNE daylight
06 Jul - 13:52:11 10° NNW 13:54:07 15° NNE 13:56:05 10° NE daylight
06 Jul - 15:27:53 10° NW 15:31:05 55° NNE 15:34:16 10° ESE daylight
06 Jul - 17:05:12 10° W 17:07:11 15° SW 17:09:06 10° SSW daylight
07 Jul - 08:06:57 10° S 08:09:28 21° SE 08:12:03 10° E daylight
07 Jul - 09:42:37 10° WSW 09:45:43 40° NNW 09:48:49 10° NE daylight
07 Jul - 11:21:07 10° NW 11:22:48 13° NNW 11:24:27 10° NNE daylight
07 Jul - 12:58:52 10° NNW 13:00:16 12° N 13:01:42 10° NE daylight
07 Jul - 14:34:30 10° NW 14:37:27 31° NNE 14:40:24 10° E daylight
07 Jul - 16:10:55 10° WNW 16:13:49 30° SW 16:16:40 10° SSE daylight
08 Jul - 07:15:21 10° SE 07:16:07 11° SE 07:17:01 10° ESE daylight
08 Jul - 08:48:53 10° WSW 08:52:07 77° NW 08:55:23 10° NE daylight
08 Jul - 10:26:45 10° WNW 10:28:58 17° NNW 10:31:09 10° NNE daylight
08 Jul - 12:05:20 10° NNW 12:06:22 11° N 12:07:26 10° NNE daylight
08 Jul - 13:41:11 10° NNW 13:43:43 21° NNE 13:46:17 10° ENE daylight
08 Jul - 15:17:09 10° WNW 15:20:22 63° SW 15:23:33 10° SE daylight
09 Jul - 07:55:27 10° SW 07:58:36 51° SE 08:01:46 10° ENE daylight
09 Jul - 09:32:29 10° W 09:35:10 23° NNW 09:37:51 10° NNE daylight
09 Jul - 11:11:21 10° NNW 11:12:28 11° N 11:13:35 10° NNE daylight
09 Jul - 12:47:52 10° NNW 12:49:55 16° NNE 12:51:59 10° NE daylight
09 Jul - 14:23:35 10° NW 14:26:49 64° NE 14:30:02 10° ESE daylight
09 Jul - 16:01:14 10° W 16:02:53 13° SW 16:04:24 10° SSW daylight
10 Jul - 07:02:27 10° S 07:05:09 25° SE 07:07:53 10° ENE daylight
10 Jul - 08:38:24 10° W 08:41:27 36° NNW 08:44:30 10° NE daylight
10 Jul - 10:16:59 10° NW 10:18:34 13° N 10:20:07 10° NNE daylight
10 Jul - 11:54:31 10° NNW 11:56:02 13° N 11:57:34 10° NE daylight
10 Jul - 13:30:10 10° NW 13:33:10 35° NNE 13:36:11 10° E daylight
10 Jul - 15:06:43 10° WNW 15:09:29 26° SW 15:12:12 10° SSE daylight
11 Jul - 06:10:20 10° SSE 06:11:45 13° SE 06:13:17 10° ESE visible
11 Jul - 07:44:34 10° WSW 07:47:47 67° NW 07:51:02 10° NE daylight
11 Jul - 09:22:34 10° WNW 09:24:41 16° NNW 09:26:46 10° NNE daylight
11 Jul - 11:01:01 10° NNW 11:02:07 11° N 11:03:13 10° NNE daylight
11 Jul - 12:36:47 10° NNW 12:39:25 22° NNE 12:42:05 10° ENE daylight
11 Jul - 14:12:50 10° WNW 14:16:00 53° SW 14:19:09 10° SE daylight
12 Jul - 06:51:01 10° SW 06:54:13 60° SE 06:57:26 10° ENE daylight
12 Jul - 08:28:14 10° WNW 08:30:50 21° NNW 08:33:25 10° NNE daylight
12 Jul - 10:07:06 10° NNW 10:08:10 11° N 10:09:14 10° NNE daylight
12 Jul - 11:43:27 10° NNW 11:45:36 16° NNE 11:47:46 10° ENE daylight
12 Jul - 13:19:12 10° NW 13:22:27 74° NE 13:25:40 10° ESE daylight
12 Jul - 14:57:21 10° WSW 14:58:27 11° SW 14:59:26 10° SSW daylight
13 Jul - 05:57:53 10° SSW 06:00:43 28° SE 06:03:35 10° ENE visible
13 Jul - 07:34:05 10° W 07:37:03 32° NNW 07:40:03 10° NE daylight
13 Jul - 09:12:45 10° NW 09:14:13 12° N 09:15:41 10° NNE daylight
13 Jul - 10:50:04 10° NNW 10:51:41 13° N 10:53:20 10° NE daylight
13 Jul - 12:25:42 10° NW 12:28:46 39° NNE 12:31:50 10° ESE daylight
13 Jul - 14:02:25 10° W 14:05:02 22° SW 14:07:36 10° S daylight
